[[{"header":{"parameterUnit":"m.s-1","parameterCategory":2,"la1":30.2991,"la2":30.254,"lo1":-89.0895,"lo2":-89.0444,"dy":0.0017,"dx":0.0017,"nx":28,"ny":28,"refTime":"2024-04-11T03:00:00:Z","depth":"0","parameterNumber":2,"parameterNumberName":"U-component_of_CURRENTS"},"data":[0,0,0,0,0,0,0,0,0,0,0,0,0,0,0,0,0,0,0,0,0,0,0,0,0,0,0,0,0,0,0,0,0,0,0,0,0,0,0,0,0,0,0,0,0,0,0,0,0,0,0,0,0,0,0,0,0,0,0.2978,0.2979,0,0.3063,0.3064,0.3064,0.3082,0.3082,0.3081,0.3081,0.3143,0.3145,0.3147,0,0,0,0,0,0,0,0,0,0,0,0,0,0.2856,0.2858,0.2978,0.298,0.2981,0.3063,0.3064,0.3065,0.3082,0.3081,0.3081,0.3081,0.3142,0.3144,0.3147,0,0,0,0,0,0,0,0,0,0,0,0,0,0.2919,0.2859,0.2978,0.3001,0.3005,0.3063,0.3064,0.3065,0.3082,0.3081,0.3081,0.308,0.3141,0.3144,0.3147,0.3177,0,0,0.3156,0.3158,0,0,0,0,0,0,0,0,0.2916,0.2923,0.2997,0.3,0.3004,0.3064,0.3044,0.3102,0.3082,0.305,0.3081,0.308,0.3116,0.3121,0.3135,0.318,0.3183,0.3157,0.3158,0.316,0.3161,0,0,0,0,0,0,0,0.2911,0.292,0.3009,0.2998,0.3003,0.3016,0.3024,0.3055,0.3083,0.3052,0.3055,0.3069,0.3118,0.3132,0.3137,0.3184,0.3156,0.3159,0.3161,0.3162,0.3287,0.3288,0,0,0,0,0,0,0.2906,0.2916,0.3006,0.3012,0.296,0.3019,0.3028,0.3043,0.3083,0.309,0.3069,0.3069,0.3127,0.3133,0.3139,0.3206,0.316,0.3162,0.3164,0.3285,0.3287,0.3289,0,0,0,0,0,0,0.2903,0.2913,0.3003,0.2968,0.298,0.3022,0.3039,0.3045,0.306,0.3096,0.3102,0.3078,0.3127,0.3135,0.3176,0.3207,0.3164,0.3167,0.3284,0.3286,0.3288,0.3321,0,0,0,0,0,0,0.2899,0.2912,0.2921,0.2967,0.2982,0.3045,0.304,0.3047,0.3071,0.3071,0.3106,0.3111,0.3127,0.3172,0.3179,0.321,0.3169,0.3282,0.3285,0.3287,0.3318,0.3324,0.3329,0,0,0,0,0,0.2895,0.2914,0.2921,0.2932,0.2993,0.3046,0.3055,0.308,0.3071,0.3088,0.3111,0.311,0.3195,0.3175,0.3184,0.3216,0.328,0.3284,0.3287,0.3315,0.3323,0.3329,0,0,0,0,0,0,0.2868,0.2919,0.2927,0.2961,0.3002,0.305,0.3073,0.3081,0.3111,0.3112,0.3129,0.3138,0.3184,0.3197,0.3175,0.3261,0.3238,0.3243,0.3256,0.3264,0.3269,0.3258,0.3171,0,0,0,0,0,0.2866,0.2891,0.2942,0.2969,0.2992,0.3029,0.3051,0.307,0.3105,0.3117,0.3139,0.3169,0.3206,0.323,0.326,0.3309,0.3328,0.3336,0.3342,0.3347,0.3344,0.3382,0.3391,0.33,0.33,0.33,0,0,0.2863,0.2894,0.2909,0.2964,0.2998,0.3046,0.3041,0.3084,0.3119,0.312,0.3168,0.3186,0.3221,0.3276,0.3299,0.3292,0.3392,0.3351,0.3355,0.335,0.3387,0.3395,0.3403,0.3302,0.3302,0.3301,0,0,0.2884,0.29,0.2936,0.2973,0.303,0.3057,0.3069,0.3119,0.3137,0.3186,0.3196,0.3228,0.3285,0.3318,0.3342,0.3397,0.3414,0.3411,0.344,0.3478,0.3485,0.3492,0.3564,0.3577,0.3422,0.3422,0.3422,0,0.2879,0.2933,0.2955,0.3004,0.3041,0.3063,0.3116,0.3143,0.3196,0.3216,0.3206,0.3284,0.3306,0.3377,0.3396,0.3409,0.3443,0.341,0.3484,0.3491,0.3497,0.3569,0.3582,0.3424,0.3424,0.3423,0.3423,0,0.294,0.2979,0.3006,0.3073,0.311,0.3159,0.3204,0.3232,0.3247,0.327,0.3324,0.3352,0.3397,0.3415,0.3423,0.3488,0.3505,0.3479,0.3462,0.3508,0.3582,0.3595,0.3427,0.3426,0.3425,0.3425,0,0,0.2956,0.3032,0.3043,0.3076,0.3152,0.3186,0.3246,0.3307,0.3336,0.3369,0.3411,0.3465,0.346,0.3486,0.3502,0.3533,0.3615,0.3528,0.3529,0.3593,0.3732,0.3853,0.3879,0.3601,0.3602,0.3604,0.3779,0,0.3006,0.3088,0.312,0.3197,0.3249,0.328,0.3327,0.3373,0.3406,0.3445,0.3467,0.3512,0.3497,0.3521,0.3549,0.3593,0.3646,0.3571,0.3683,0.3687,0.3783,0.3897,0.3769,0.3924,0.3792,0.3794,0.3796,0,0.3081,0.312,0.3196,0.3256,0.328,0.3314,0.3384,0.343,0.3485,0.351,0.355,0.3565,0.3631,0.3592,0.3701,0.3657,0.37,0.3726,0.3733,0.3838,0.3833,0.3851,0.3953,0.3849,0.3816,0.3815,0.3813,0,0.3106,0.3182,0.3233,0.3258,0.3325,0.3348,0.3382,0.3443,0.3492,0.355,0.3591,0.3647,0.3701,0.3739,0.3824,0.3761,0.3949,0.3866,0.4023,0.4033,0.3944,0.3944,0.3947,0.3942,0.3941,0.3941,0.394,0,0.3166,0.3212,0.3232,0.3264,0.3308,0.3348,0.3403,0.3448,0.3517,0.3567,0.3616,0.369,0.3736,0.3849,0.3875,0.4043,0.4007,0.4067,0.4096,0.396,0.396,0.3879,0.3813,0.3948,0.3946,0.3945,0.3944,0,0.3211,0.3227,0.3285,0.3321,0.3327,0.3358,0.3419,0.3455,0.3527,0.3599,0.3627,0.3763,0.3921,0.4014,0.4126,0.4156,0.4171,0.4325,0.4199,0.4211,0.4233,0.4174,0.4084,0.3963,0.4503,0.4508,0.4511,0,0.3251,0.3283,0.3313,0.3324,0.3337,0.3372,0.3393,0.3456,0.3494,0.3644,0.3678,0.3882,0.4019,0.4302,0.4395,0.4543,0.4342,0.4509,0.4357,0.4269,0.4221,0.4001,0.3885,0.4253,0.4254,0.4255,0.4256,0,0.3318,0.3316,0.3339,0.3364,0.3372,0.3389,0.3415,0.3447,0.3512,0.361,0.3762,0.3901,0.4192,0.4334,0.458,0.462,0.4303,0.4538,0.4435,0.405,0.3812,0.3698,0.4131,0.4264,0.4263,0.4263,0.4262,0.4262,0.3349,0.3366,0.3376,0.3395,0.3405,0.3392,0.3378,0.3422,0.3499,0.3591,0.3762,0.3938,0.4183,0.4529,0.4546,0.4531,0.4437,0.4405,0.4354,0.415,0.3981,0.4497,0.4676,0.4677,0.4678,0.4679,0.468,0,0.3364,0.3375,0.3406,0.3399,0.339,0.3391,0.3379,0.3343,0.3392,0.3546,0.3693,0.3967,0.415,0.4281,0.4423,0.4343,0.4046,0.423,0.3807,0.371,0.4169,0.4108,0.4185,0.4185,0.4185,0.4185,0.4185,0.4185,0.3363,0.3376,0.3381,0.3363,0.3354,0.3275,0.3238,0.3222,0.3283,0.3406,0.3549,0.3728,0.4017,0.4238,0.4201,0.4097,0.3737,0.3645,0.3592,0.3857,0.3863,0.3869,0.3795,0.3804,0.3804,0.2936,0.293,0.2926]},{"header":{"parameterUnit":"m.s-1","parameterCategory":2,"la1":30.2991,"la2":30.254,"lo1":-89.0895,"lo2":-89.0444,"dy":0.0017,"dx":0.0017,"nx":28,"ny":28,"refTime":"2024-04-11T03:00:00:Z","depth":"0","parameterNumber":3,"parameterNumberName":"V-component_of_CURRENTS"},"data":[0,0,0,0,0,0,0,0,0,0,0,0,0,0,0,0,0,0,0,0,0,0,0,0,0,0,0,0,0,0,0,0,0,0,0,0,0,0,0,0,0,0,0,0,0,0,0,0,0,0,0,0,0,0,0,0,0,0,-0.1291,-0.1293,0,-0.1432,-0.1433,-0.1434,-0.1513,-0.1513,-0.1514,-0.1514,-0.1634,-0.1637,-0.164,0,0,0,0,0,0,0,0,0,0,0,0,0,-0.1097,-0.11,-0.1291,-0.1293,-0.1295,-0.1432,-0.1433,-0.1435,-0.1512,-0.1513,-0.1514,-0.1515,-0.1634,-0.1637,-0.164,0,0,0,0,0,0,0,0,0,0,0,0,0,-0.12,-0.1101,-0.129,-0.1354,-0.1361,-0.1432,-0.1433,-0.1435,-0.1512,-0.1513,-0.1514,-0.1515,-0.1633,-0.1636,-0.164,-0.1645,0,0,-0.1652,-0.1654,0,0,0,0,0,0,0,0,-0.1194,-0.1206,-0.1342,-0.135,-0.1358,-0.146,-0.141,-0.1506,-0.1512,-0.145,-0.1514,-0.1516,-0.1576,-0.1585,-0.1603,-0.165,-0.1656,-0.1652,-0.1655,-0.1657,-0.1658,0,0,0,0,0,0,0,-0.1187,-0.1201,-0.1342,-0.1345,-0.1354,-0.1379,-0.1394,-0.1428,-0.1502,-0.1455,-0.1463,-0.1485,-0.158,-0.1599,-0.1606,-0.1657,-0.1652,-0.1656,-0.1658,-0.166,-0.1769,-0.177,0,0,0,0,0,0,-0.1178,-0.1194,-0.1338,-0.1347,-0.1282,-0.1382,-0.1398,-0.1422,-0.1502,-0.1517,-0.1484,-0.1489,-0.1592,-0.1602,-0.1611,-0.1647,-0.1656,-0.166,-0.1662,-0.1769,-0.1769,-0.177,0,0,0,0,0,0,-0.1173,-0.1189,-0.1332,-0.1277,-0.1298,-0.1384,-0.1411,-0.1425,-0.1449,-0.1526,-0.1539,-0.1496,-0.1593,-0.1606,-0.1645,-0.1652,-0.1662,-0.1665,-0.1768,-0.1769,-0.177,-0.1703,0,0,0,0,0,0,-0.1167,-0.1186,-0.1186,-0.1276,-0.1301,-0.1367,-0.1411,-0.1427,-0.1464,-0.147,-0.1539,-0.1551,-0.1595,-0.1639,-0.1649,-0.1657,-0.1668,-0.1767,-0.1768,-0.1769,-0.1705,-0.1702,-0.1699,0,0,0,0,0,-0.1159,-0.1152,-0.1185,-0.1202,-0.1302,-0.1367,-0.1381,-0.1443,-0.1463,-0.1468,-0.1519,-0.1549,-0.1654,-0.1642,-0.1654,-0.1663,-0.1767,-0.1768,-0.1769,-0.1706,-0.1702,-0.1699,0,0,0,0,0,0,-0.1047,-0.1162,-0.12,-0.1223,-0.129,-0.1382,-0.139,-0.1435,-0.1479,-0.1481,-0.1549,-0.1564,-0.1607,-0.1642,-0.1627,-0.1701,-0.1718,-0.1722,-0.1666,-0.1663,-0.1661,-0.1619,-0.1672,0,0,0,0,0,-0.1028,-0.106,-0.1168,-0.1179,-0.1216,-0.1301,-0.133,-0.1376,-0.1436,-0.1457,-0.1506,-0.1562,-0.1621,-0.1645,-0.1694,-0.1721,-0.1716,-0.174,-0.1737,-0.1734,-0.171,-0.1723,-0.1718,-0.1774,-0.1774,-0.1774,0,0,-0.0983,-0.1051,-0.1066,-0.1159,-0.1214,-0.1256,-0.1319,-0.1361,-0.1391,-0.1461,-0.1493,-0.155,-0.1627,-0.1669,-0.1691,-0.1697,-0.171,-0.1736,-0.1733,-0.171,-0.1724,-0.1718,-0.1712,-0.1775,-0.1775,-0.1775,0,0,-0.0922,-0.0976,-0.0996,-0.1053,-0.1145,-0.1203,-0.1214,-0.1306,-0.1344,-0.1387,-0.1455,-0.1505,-0.1581,-0.1638,-0.168,-0.1687,-0.1698,-0.1716,-0.1663,-0.1676,-0.167,-0.1666,-0.1618,-0.161,-0.1711,-0.1711,-0.1711,0,-0.0857,-0.0918,-0.1002,-0.104,-0.1084,-0.1177,-0.1205,-0.1253,-0.1338,-0.1361,-0.1385,-0.15,-0.1565,-0.1628,-0.1641,-0.1678,-0.1665,-0.1667,-0.1668,-0.1664,-0.166,-0.1613,-0.1604,-0.1708,-0.1708,-0.1708,-0.1709,0,-0.0837,-0.088,-0.089,-0.0981,-0.1024,-0.1062,-0.1156,-0.1184,-0.1236,-0.1288,-0.1349,-0.1434,-0.1497,-0.1542,-0.1596,-0.1619,-0.1609,-0.1662,-0.1666,-0.1649,-0.1602,-0.1594,-0.1703,-0.1704,-0.1705,-0.1706,0,0,-0.0721,-0.0854,-0.0858,-0.0896,-0.1007,-0.1036,-0.1078,-0.1152,-0.116,-0.1235,-0.1247,-0.1368,-0.14,-0.1449,-0.1527,-0.1547,-0.1514,-0.1585,-0.1587,-0.1515,-0.1488,-0.1363,-0.1342,-0.1568,-0.1567,-0.1566,-0.1452,0,-0.0689,-0.0745,-0.0824,-0.0857,-0.0902,-0.0988,-0.1017,-0.1076,-0.1129,-0.1148,-0.1242,-0.1278,-0.1373,-0.1391,-0.1432,-0.1502,-0.1495,-0.1536,-0.1533,-0.1531,-0.1406,-0.1331,-0.1262,-0.1144,-0.1444,-0.1443,-0.1442,0,-0.067,-0.0715,-0.0754,-0.0829,-0.0851,-0.0866,-0.0918,-0.0952,-0.1009,-0.1042,-0.109,-0.1151,-0.1204,-0.1278,-0.1348,-0.1367,-0.1408,-0.1453,-0.1451,-0.1348,-0.1392,-0.122,-0.1119,-0.1368,-0.143,-0.1431,-0.1432,0,-0.0591,-0.0668,-0.0696,-0.0726,-0.0814,-0.0821,-0.0851,-0.0909,-0.09,-0.095,-0.091,-0.1025,-0.1011,-0.1123,-0.121,-0.1278,-0.1244,-0.1357,-0.127,-0.1261,-0.1204,-0.119,-0.1323,-0.137,-0.1371,-0.1371,-0.1371,0,-0.0563,-0.0577,-0.0653,-0.0668,-0.0654,-0.0741,-0.0714,-0.0756,-0.0762,-0.068,-0.0827,-0.0743,-0.0966,-0.098,-0.1125,-0.1124,-0.117,-0.1211,-0.1215,-0.1175,-0.116,-0.1378,-0.1517,-0.1367,-0.1368,-0.1368,-0.1369,0,-0.0485,-0.0553,-0.0563,-0.0621,-0.0626,-0.0603,-0.0593,-0.0546,-0.0581,-0.0462,-0.0449,-0.0492,-0.0484,-0.0673,-0.0798,-0.0934,-0.1093,-0.1003,-0.09,-0.0893,-0.1065,-0.1199,-0.1243,-0.1338,-0.0896,-0.0892,-0.0889,0,-0.0454,-0.046,-0.0483,-0.0451,-0.047,-0.0448,-0.0404,-0.0444,-0.0366,-0.0259,-0.0155,-0.0118,-0.0001,-0.0137,-0.0401,-0.0577,-0.0864,-0.066,-0.0795,-0.1011,-0.1168,-0.1292,-0.1383,-0.0691,-0.0687,-0.0683,-0.068,0,-0.036,-0.0366,-0.0362,-0.0302,-0.025,-0.0189,-0.0125,-0.0029,0.0002,0.0154,0.04,0.0515,0.0414,0.0292,0.0001,-0.0172,-0.0804,-0.0582,-0.0867,-0.1032,-0.1117,-0.1231,-0.0809,-0.0646,-0.0649,-0.0652,-0.0654,-0.0655,-0.025,-0.0211,-0.0191,-0.0129,-0.0049,0.009,0.0181,0.0329,0.0541,0.0824,0.0881,0.1149,0.0829,0.048,0.017,-0.0411,-0.048,-0.0634,-0.0775,-0.0879,-0.0986,-0.043,-0.0245,-0.0246,-0.0247,-0.0248,-0.0249,0,-0.0112,-0.0085,-0.0011,0.0083,0.0216,0.0203,0.039,0.0533,0.0866,0.1207,0.1483,0.1573,0.1177,0.0628,-0.0133,-0.0577,-0.0827,-0.0857,-0.1108,-0.1194,-0.0745,-0.0758,-0.0602,-0.0602,-0.0601,-0.0601,-0.0601,-0.0601,-0.0031,0.0052,0.0071,0.0293,0.0379,0.0565,0.0681,0.0956,0.1209,0.171,0.1972,0.2124,0.1726,0.0282,-0.0765,-0.1012,-0.1417,-0.1403,-0.1652,-0.1462,-0.1458,-0.1454,-0.1505,-0.1508,-0.1509,-0.2073,-0.2079,-0.2083]}],[{"header":{"parameterUnit":"m.s-1","parameterCategory":2,"la1":30.2991,"la2":30.254,"lo1":-89.0895,"lo2":-89.0444,"dy":0.0017,"dx":0.0017,"nx":28,"ny":28,"refTime":"2024-04-11T03:00:00:Z","depth":"2","parameterNumber":2,"parameterNumberName":"U-component_of_CURRENTS"},"data":[0,0,0,0,0,0,0,0,0,0,0,0,0,0,0,0,0,0,0,0,0,0,0,0,0,0,0,0,0,0,0,0,0,0,0,0,0,0,0,0,0,0,0,0,0,0,0,0,0,0,0,0,0,0,0,0,0,0,0.2316,0.2316,0,0.2371,0.2371,0.2372,0.2496,0.2499,0.2501,0.2504,0.257,0.2569,0.2568,0,0,0,0,0,0,0,0,0,0,0,0,0,0.2189,0.2191,0.2316,0.2316,0.2317,0.2371,0.2371,0.2372,0.2495,0.2499,0.2502,0.2505,0.257,0.2569,0.2568,0,0,0,0,0,0,0,0,0,0,0,0,0,0.2243,0.2192,0.2315,0.2386,0.2393,0.2371,0.2371,0.2372,0.2495,0.2499,0.2503,0.2506,0.257,0.2569,0.2568,0.2481,0,0,0.2565,0.2564,0,0,0,0,0,0,0,0,0.224,0.2247,0.2375,0.2381,0.2389,0.2432,0.2351,0.241,0.2494,0.2455,0.2504,0.2508,0.2522,0.2525,0.2525,0.2484,0.2487,0.2564,0.2564,0.2563,0.2563,0,0,0,0,0,0,0,0.2236,0.2245,0.2336,0.2376,0.2384,0.2372,0.2385,0.2362,0.2464,0.2458,0.2468,0.2475,0.2527,0.2525,0.2527,0.2487,0.2564,0.2563,0.2563,0.2562,0.2655,0.2658,0,0,0,0,0,0,0.2235,0.2242,0.2334,0.2338,0.2325,0.2371,0.2386,0.2413,0.2465,0.2477,0.2472,0.2481,0.2525,0.2528,0.253,0.2624,0.2563,0.2562,0.2562,0.2652,0.2655,0.2659,0,0,0,0,0,0,0.2232,0.2243,0.2332,0.2291,0.2302,0.237,0.2399,0.2412,0.244,0.2475,0.2488,0.2491,0.2529,0.2532,0.2567,0.262,0.2562,0.2561,0.2648,0.2653,0.2657,0.2687,0,0,0,0,0,0,0.2228,0.2242,0.2253,0.2292,0.2304,0.2354,0.2396,0.241,0.2438,0.2451,0.2494,0.2503,0.2532,0.2569,0.2566,0.2618,0.256,0.2644,0.265,0.2656,0.2682,0.2692,0.27,0,0,0,0,0,0.2224,0.2247,0.2254,0.2265,0.2321,0.2355,0.2361,0.2419,0.2435,0.2456,0.2499,0.2504,0.2607,0.2568,0.2564,0.2618,0.2641,0.2648,0.2655,0.2677,0.269,0.27,0,0,0,0,0,0,0.2212,0.2262,0.2272,0.2312,0.2339,0.2378,0.2398,0.2413,0.2455,0.2472,0.2502,0.2514,0.2575,0.2585,0.2542,0.2672,0.2639,0.2646,0.2658,0.2669,0.2678,0.2684,0.2559,0,0,0,0,0,0.2203,0.223,0.227,0.2298,0.2314,0.2342,0.2357,0.2392,0.2432,0.2456,0.2491,0.2542,0.2589,0.2621,0.2653,0.2683,0.2699,0.2734,0.2743,0.275,0.276,0.282,0.2834,0.2682,0.2682,0.2682,0,0,0.22,0.2232,0.2246,0.2294,0.2318,0.2354,0.2365,0.2399,0.2438,0.2448,0.2518,0.2552,0.2602,0.2673,0.2704,0.2695,0.2806,0.2759,0.2765,0.277,0.2829,0.2843,0.2856,0.2687,0.2686,0.2685,0,0,0.2209,0.2242,0.2263,0.2295,0.2334,0.2359,0.2369,0.2415,0.2455,0.2505,0.2543,0.2607,0.2668,0.2729,0.2762,0.283,0.2841,0.2863,0.2919,0.2977,0.2989,0.3,0.3041,0.3055,0.2881,0.2881,0.2881,0,0.2205,0.2247,0.2272,0.231,0.2341,0.2365,0.24,0.2434,0.249,0.2532,0.2551,0.2674,0.2704,0.2793,0.2852,0.2848,0.2882,0.2862,0.2985,0.2997,0.3007,0.3046,0.3061,0.2883,0.2883,0.2883,0.2882,0,0.2235,0.2271,0.2293,0.2352,0.2382,0.242,0.2469,0.2511,0.2556,0.2609,0.2704,0.2746,0.2831,0.2865,0.2884,0.2987,0.2986,0.2973,0.2944,0.3023,0.3061,0.3076,0.2886,0.2885,0.2885,0.2884,0,0,0.2234,0.23,0.2316,0.234,0.2412,0.2441,0.2508,0.2585,0.2644,0.2718,0.28,0.2899,0.2926,0.2966,0.2986,0.3054,0.3155,0.3062,0.3064,0.308,0.3288,0.3257,0.327,0.3168,0.3171,0.3173,0.3283,0,0.2255,0.2313,0.2356,0.242,0.2443,0.2506,0.2564,0.2639,0.2716,0.2804,0.287,0.2961,0.2961,0.3009,0.307,0.313,0.3198,0.3126,0.323,0.3233,0.3176,0.3288,0.3051,0.3127,0.3298,0.33,0.3302,0,0.2274,0.2307,0.2363,0.2434,0.2459,0.2523,0.2628,0.2677,0.2803,0.2871,0.2967,0.3021,0.3124,0.3108,0.3244,0.3204,0.326,0.3302,0.3306,0.3277,0.323,0.308,0.3148,0.3327,0.3325,0.3323,0.3322,0,0.2256,0.2318,0.236,0.2392,0.2479,0.2544,0.2602,0.2717,0.2782,0.2918,0.3003,0.3102,0.3183,0.325,0.3351,0.3313,0.35,0.3443,0.3463,0.346,0.3279,0.3255,0.3553,0.3553,0.3553,0.3553,0.3552,0,0.2287,0.2329,0.2357,0.2419,0.2469,0.2522,0.2645,0.2714,0.2829,0.2931,0.3026,0.3128,0.3237,0.3352,0.3391,0.3489,0.3533,0.35,0.3502,0.3285,0.3262,0.3444,0.343,0.3557,0.3556,0.3555,0.3554,0,0.2303,0.2331,0.2388,0.2469,0.2481,0.2533,0.2679,0.2763,0.2858,0.2985,0.3036,0.3199,0.3355,0.3448,0.3593,0.3565,0.3639,0.3665,0.3402,0.3371,0.3538,0.3525,0.3669,0.3669,0.3669,0.3669,0.367,0,0.2322,0.2331,0.2415,0.2472,0.2541,0.2617,0.2677,0.2772,0.285,0.3031,0.3077,0.3286,0.3403,0.3584,0.3617,0.3678,0.3724,0.3479,0.3357,0.3571,0.3558,0.3544,0.3531,0.3124,0.312,0.3116,0.3113,0,0.2336,0.2373,0.245,0.2519,0.2606,0.2678,0.2765,0.2802,0.2903,0.3005,0.3133,0.3235,0.343,0.3405,0.3508,0.3501,0.3435,0.3409,0.3728,0.3137,0.3068,0.3051,0.3054,0.3081,0.3085,0.3087,0.3089,0.309,0.2342,0.2386,0.2461,0.2546,0.2644,0.2693,0.2712,0.2797,0.2851,0.2898,0.3058,0.3108,0.3187,0.3218,0.3164,0.3139,0.3353,0.3195,0.3201,0.3212,0.3135,0.3071,0.307,0.3072,0.3075,0.3077,0.3079,0,0.2259,0.2346,0.2456,0.255,0.2637,0.2702,0.2715,0.2666,0.2671,0.2777,0.2847,0.2673,0.2711,0.2784,0.2706,0.2723,0.264,0.2615,0.2478,0.2517,0.2549,0.243,0.2182,0.2178,0.2174,0.2171,0,0,0.2223,0.2265,0.2325,0.244,0.2561,0.2519,0.2499,0.2442,0.2429,0.237,0.238,0.2586,0.2715,0.2394,0.2389,0.2264,0.2349,0.2186,0.2925,0.2804,0.283,0.2931,0.28,0,0,0,0,0]},{"header":{"parameterUnit":"m.s-1","parameterCategory":2,"la1":30.2991,"la2":30.254,"lo1":-89.0895,"lo2":-89.0444,"dy":0.0017,"dx":0.0017,"nx":28,"ny":28,"refTime":"2024-04-11T03:00:00:Z","depth":"2","parameterNumber":3,"parameterNumberName":"V-component_of_CURRENTS"},"data":[0,0,0,0,0,0,0,0,0,0,0,0,0,0,0,0,0,0,0,0,0,0,0,0,0,0,0,0,0,0,0,0,0,0,0,0,0,0,0,0,0,0,0,0,0,0,0,0,0,0,0,0,0,0,0,0,0,0,0.0083,0.0084,0,0.0016,0.0014,0.0011,-0.0178,-0.0181,-0.0183,-0.0185,-0.0314,-0.0315,-0.0316,0,0,0,0,0,0,0,0,0,0,0,0,0,0.0132,0.013,0.0083,0.0084,0.0085,0.0017,0.0014,0.0011,-0.0178,-0.0181,-0.0183,-0.0185,-0.0313,-0.0315,-0.0317,0,0,0,0,0,0,0,0,0,0,0,0,0,0.0071,0.0129,0.0083,-0.0001,-0.0007,0.0018,0.0014,0.001,-0.0178,-0.0181,-0.0184,-0.0187,-0.0312,-0.0315,-0.0317,-0.0269,0,0,-0.0324,-0.0325,0,0,0,0,0,0,0,0,0.0075,0.0067,0.001,0.0005,-0.0002,-0.0056,-0.0015,-0.0079,-0.0177,-0.0137,-0.0185,-0.0188,-0.0216,-0.0226,-0.0263,-0.0275,-0.028,-0.0324,-0.0325,-0.0326,-0.0327,0,0,0,0,0,0,0,0.0079,0.007,0.0033,0.0013,0.0005,-0.0003,-0.0019,-0.0029,-0.0177,-0.014,-0.0149,-0.0119,-0.0224,-0.0261,-0.0267,-0.0282,-0.0324,-0.0326,-0.0327,-0.0328,-0.0395,-0.0396,0,0,0,0,0,0,0.0131,0.0073,0.0036,0.0034,0.0055,-0.0,-0.0019,-0.0054,-0.0176,-0.019,-0.0116,-0.0127,-0.0255,-0.0265,-0.0273,-0.0305,-0.0326,-0.0328,-0.033,-0.0395,-0.0395,-0.0396,0,0,0,0,0,0,0.0131,0.0126,0.0039,0.0074,0.0065,0.0004,-0.0035,-0.0053,-0.0116,-0.0152,-0.0174,-0.016,-0.0258,-0.0269,-0.0303,-0.0308,-0.0329,-0.0332,-0.0394,-0.0395,-0.0396,-0.0315,0,0,0,0,0,0,0.0132,0.0124,0.0109,0.0075,0.0066,0.0028,-0.003,-0.0051,-0.008,-0.0097,-0.0195,-0.021,-0.0262,-0.0299,-0.0305,-0.0311,-0.0333,-0.0394,-0.0395,-0.0395,-0.0318,-0.0313,-0.031,0,0,0,0,0,0.0132,0.0112,0.0106,0.0104,0.0046,0.0031,0.002,-0.0045,-0.0078,-0.0116,-0.0169,-0.0209,-0.031,-0.03,-0.0307,-0.0315,-0.0393,-0.0394,-0.0395,-0.0319,-0.0314,-0.031,0,0,0,0,0,0,0.01,0.0094,0.0084,0.0055,0.0046,0.0006,-0.0008,-0.004,-0.0114,-0.0129,-0.0194,-0.0212,-0.024,-0.0286,-0.0274,-0.0341,-0.0365,-0.0367,-0.0305,-0.03,-0.0296,-0.027,-0.0335,0,0,0,0,0,0.0107,0.0097,0.0088,0.007,0.0068,0.0034,0.0023,-0.0015,-0.0059,-0.0099,-0.016,-0.0217,-0.0242,-0.028,-0.0311,-0.0336,-0.0363,-0.0355,-0.0351,-0.0347,-0.0332,-0.042,-0.0422,-0.0399,-0.0399,-0.0399,0,0,0.0105,0.01,0.0097,0.007,0.0054,0.0056,0.0008,-0.0006,-0.0009,-0.009,-0.0142,-0.0187,-0.024,-0.0275,-0.0296,-0.0323,-0.0353,-0.0348,-0.0344,-0.0332,-0.0421,-0.0423,-0.0425,-0.04,-0.0399,-0.0399,0,0,0.0122,0.0078,0.0091,0.0077,0.0083,0.0068,0.0069,0.0025,-0.0014,-0.0053,-0.0092,-0.0135,-0.0222,-0.0243,-0.0265,-0.0252,-0.0311,-0.0288,-0.0265,-0.035,-0.0352,-0.0355,-0.0321,-0.0322,-0.0309,-0.0309,-0.0309,0,0.0126,0.0122,0.0093,0.0096,0.0107,0.0078,0.0094,0.0065,0.0012,0.0009,-0.0073,-0.0156,-0.0201,-0.0194,-0.0214,-0.0238,-0.0277,-0.0273,-0.0343,-0.0347,-0.0351,-0.0317,-0.0318,-0.0305,-0.0306,-0.0306,-0.0306,0,0.0153,0.0148,0.0151,0.0152,0.0147,0.0153,0.0142,0.0119,0.0069,0.0043,0.0007,-0.0074,-0.0133,-0.0158,-0.0193,-0.0223,-0.023,-0.0307,-0.0348,-0.0348,-0.0311,-0.0314,-0.03,-0.0301,-0.0302,-0.0303,0,0,0.0183,0.0177,0.0175,0.0202,0.0176,0.0188,0.019,0.0203,0.0205,0.0118,0.0098,0.0039,-0.0022,-0.0049,-0.0096,-0.018,-0.0219,-0.0272,-0.0279,-0.0221,-0.0345,-0.0354,-0.0358,-0.0346,-0.0348,-0.035,-0.0281,0,0.0226,0.0257,0.0231,0.0277,0.0309,0.0271,0.0278,0.0279,0.0225,0.0187,0.0132,0.0076,0.0028,-0.0035,-0.0107,-0.018,-0.0238,-0.0225,-0.0368,-0.0368,-0.0368,-0.0367,-0.0344,-0.0286,-0.0284,-0.0284,-0.0285,0,0.0274,0.0301,0.034,0.0375,0.0378,0.0366,0.0375,0.0387,0.0349,0.0289,0.0228,0.0151,0.0115,-0.0014,-0.0101,-0.0107,-0.022,-0.0299,-0.0301,-0.0345,-0.0388,-0.0304,-0.0292,-0.029,-0.029,-0.029,-0.0289,0,0.0335,0.0384,0.0427,0.0427,0.0443,0.043,0.043,0.0402,0.0424,0.0338,0.031,0.023,0.019,0.0029,-0.0094,-0.014,-0.0227,-0.0309,-0.0392,-0.0388,-0.0409,-0.0406,-0.0434,-0.0434,-0.0434,-0.0434,-0.0434,0,0.0373,0.0414,0.0452,0.0444,0.0501,0.0496,0.048,0.0472,0.0451,0.0512,0.0372,0.0387,0.0165,0.0098,-0.0059,-0.0178,-0.0187,-0.0361,-0.0396,-0.0372,-0.0367,-0.0428,-0.0428,-0.0431,-0.0432,-0.0433,-0.0433,0,0.0391,0.0412,0.0467,0.049,0.0505,0.0529,0.0501,0.0527,0.0509,0.0571,0.055,0.051,0.0434,0.0257,0.0038,-0.0092,-0.0254,-0.0319,-0.0208,-0.0234,-0.0352,-0.0349,-0.0384,-0.0385,-0.0385,-0.0385,-0.0386,0,0.0388,0.0431,0.0476,0.0496,0.0473,0.0493,0.0523,0.0528,0.0593,0.0688,0.0779,0.0699,0.0695,0.0443,0.0127,-0.0121,-0.0195,-0.0273,-0.0389,-0.0329,-0.0358,-0.0355,-0.0351,-0.0333,-0.0332,-0.0332,-0.0332,0,0.0408,0.0416,0.0441,0.0495,0.0519,0.0575,0.0631,0.0703,0.0809,0.0895,0.107,0.1062,0.0822,0.0558,0.0169,-0.001,-0.0238,-0.0279,-0.0275,-0.0369,-0.0283,-0.0311,-0.0309,-0.033,-0.033,-0.033,-0.0331,-0.0331,0.0421,0.0442,0.0486,0.0531,0.0582,0.0704,0.0763,0.0896,0.1067,0.1276,0.1282,0.1295,0.0974,0.0468,0.0151,-0.0212,-0.022,-0.0354,-0.0353,-0.0354,-0.0382,-0.0304,-0.0351,-0.0351,-0.0351,-0.0352,-0.0352,0,0.0499,0.0513,0.0541,0.0613,0.0693,0.0708,0.0913,0.1033,0.1281,0.1406,0.1511,0.1237,0.0924,0.0556,0.0005,-0.0312,-0.0348,-0.0391,-0.0377,-0.0376,-0.0376,-0.0406,-0.0381,-0.0382,-0.0383,-0.0384,0,0,0.0541,0.0609,0.0624,0.0754,0.0787,0.0984,0.1118,0.1305,0.1439,0.1556,0.1544,0.1473,0.1026,0.0632,0.0209,-0.0094,-0.016,-0.0145,-0.0088,-0.002,-0.0016,-0.0321,-0.0363,0,0,0,0,0]}],[{"header":{"parameterUnit":"m.s-1","parameterCategory":2,"la1":30.2991,"la2":30.254,"lo1":-89.0895,"lo2":-89.0444,"dy":0.0017,"dx":0.0017,"nx":28,"ny":28,"refTime":"2024-04-11T03:00:00:Z","depth":"4","parameterNumber":2,"parameterNumberName":"U-component_of_CURRENTS"},"data":[0,0,0,0,0,0,0,0,0,0,0,0,0,0,0,0,0,0,0,0,0,0,0,0,0,0,0,0,0,0,0,0,0,0,0,0,0,0,0,0,0,0,0,0,0,0,0,0,0,0,0,0,0,0,0,0,0,0,0.1097,0.1097,0,0.1157,0.1157,0.1158,0.1199,0.1199,0.12,0.12,0.1322,0.1325,0.1328,0,0,0,0,0,0,0,0,0,0,0,0,0,0.1004,0.1006,0.1097,0.1097,0.1098,0.1157,0.1157,0.1158,0.1199,0.1199,0.12,0.12,0.1321,0.1325,0.1328,0,0,0,0,0,0,0,0,0,0,0,0,0,0.1051,0.1006,0.1096,0.1127,0.113,0.1156,0.1157,0.1158,0.1199,0.1199,0.12,0.12,0.132,0.1324,0.1328,0.1343,0,0,0.1342,0.1343,0,0,0,0,0,0,0,0,0.1049,0.1055,0.1121,0.1125,0.1128,0.1172,0.117,0.1223,0.1199,0.1171,0.12,0.1201,0.1278,0.1286,0.1293,0.1349,0.1354,0.1342,0.1345,0.1346,0.1348,0,0,0,0,0,0,0,0.1045,0.1052,0.1119,0.1122,0.1127,0.1133,0.114,0.118,0.1221,0.1174,0.1177,0.1186,0.128,0.1289,0.1297,0.1356,0.1342,0.1346,0.1348,0.135,0.1505,0.1506,0,0,0,0,0,0,0.1041,0.1049,0.1117,0.1121,0.109,0.1134,0.1142,0.1156,0.1219,0.1229,0.1185,0.1187,0.1281,0.1291,0.1301,0.1396,0.1346,0.135,0.1353,0.1503,0.1505,0.1507,0,0,0,0,0,0,0.1038,0.1046,0.1115,0.1087,0.1096,0.1135,0.1151,0.1157,0.1197,0.1227,0.1238,0.1222,0.1282,0.1295,0.1372,0.1399,0.1352,0.1356,0.1502,0.1504,0.1506,0.154,0,0,0,0,0,0,0.1036,0.1045,0.107,0.1087,0.1098,0.1158,0.115,0.1158,0.12,0.1204,0.1262,0.1272,0.1284,0.1366,0.1377,0.1404,0.136,0.15,0.1503,0.1505,0.1537,0.1543,0.1548,0,0,0,0,0,0.1032,0.1056,0.1071,0.108,0.1125,0.1159,0.1167,0.1194,0.1201,0.123,0.1272,0.1272,0.1391,0.1372,0.1384,0.1412,0.1498,0.1502,0.1505,0.1534,0.1542,0.1548,0,0,0,0,0,0,0.1034,0.1063,0.108,0.1114,0.1149,0.1167,0.1196,0.1212,0.1265,0.128,0.1302,0.1316,0.139,0.1401,0.1378,0.1465,0.1441,0.1447,0.1458,0.1466,0.1471,0.1466,0.1363,0,0,0,0,0,0.1044,0.1072,0.1101,0.1135,0.1152,0.1181,0.1203,0.1225,0.1263,0.1287,0.133,0.1372,0.1407,0.1438,0.1477,0.1532,0.1552,0.1555,0.1561,0.1566,0.157,0.1631,0.1643,0.1518,0.1518,0.1518,0,0,0.1055,0.1076,0.1093,0.1138,0.1165,0.1193,0.1197,0.1243,0.1276,0.1294,0.1371,0.1404,0.1429,0.1489,0.1521,0.1505,0.1614,0.157,0.1574,0.1576,0.1636,0.1648,0.1659,0.1521,0.152,0.152,0,0,0.1071,0.111,0.1131,0.1162,0.121,0.1229,0.1249,0.1295,0.133,0.1398,0.1415,0.1471,0.1534,0.1556,0.1569,0.1633,0.1645,0.1643,0.1668,0.1727,0.1738,0.1748,0.1793,0.1806,0.1642,0.1642,0.1642,0,0.1081,0.1111,0.1146,0.1173,0.1201,0.1246,0.1275,0.1314,0.1386,0.142,0.1433,0.1535,0.1559,0.1616,0.163,0.1645,0.1679,0.1637,0.1735,0.1745,0.1754,0.1798,0.1812,0.1644,0.1644,0.1644,0.1644,0,0.1099,0.1137,0.1155,0.12,0.1243,0.1278,0.1331,0.1386,0.1431,0.1469,0.156,0.1604,0.1665,0.1672,0.1668,0.1742,0.1745,0.1738,0.1714,0.1768,0.1811,0.1826,0.1647,0.1646,0.1646,0.1645,0,0,0.105,0.1146,0.1149,0.1181,0.1259,0.1287,0.1358,0.1421,0.1473,0.1551,0.1623,0.1677,0.1721,0.1739,0.1758,0.1794,0.1881,0.1793,0.1795,0.1832,0.2015,0.1919,0.1925,0.1896,0.1899,0.1901,0.202,0,0.1043,0.11,0.1152,0.121,0.124,0.1311,0.1372,0.1448,0.1521,0.1611,0.1668,0.1753,0.1742,0.1789,0.1828,0.188,0.192,0.1849,0.1961,0.1964,0.1869,0.1939,0.1909,0.203,0.2034,0.2036,0.2038,0,0.101,0.106,0.1119,0.1217,0.1237,0.1286,0.139,0.1459,0.1585,0.1653,0.1751,0.1815,0.1909,0.1885,0.2006,0.1968,0.1995,0.2016,0.2021,0.1928,0.1895,0.1966,0.2063,0.2061,0.206,0.2058,0.2056,0,0.0923,0.1021,0.1071,0.1103,0.1225,0.1271,0.1344,0.1469,0.1544,0.1702,0.1783,0.19,0.1991,0.2048,0.2112,0.2075,0.2232,0.2188,0.2123,0.2117,0.2151,0.2139,0.2261,0.2261,0.226,0.226,0.226,0,0.0861,0.0893,0.1041,0.1058,0.1122,0.124,0.1326,0.1415,0.1577,0.1688,0.1815,0.1916,0.2039,0.2143,0.2163,0.2205,0.2288,0.2144,0.2148,0.2162,0.2151,0.2161,0.2148,0.2265,0.2264,0.2263,0.2262,0,0.0736,0.0837,0.0889,0.103,0.1076,0.1126,0.1298,0.137,0.1546,0.1702,0.1768,0.1964,0.2116,0.2216,0.2331,0.2273,0.2314,0.23,0.2331,0.2333,0.2141,0.2129,0.2233,0.2231,0.2229,0.2227,0.2226,0,0.0676,0.0695,0.0834,0.0878,0.0941,0.1048,0.1123,0.1318,0.1431,0.1716,0.1792,0.2001,0.2121,0.2219,0.2309,0.2375,0.2337,0.2328,0.2198,0.2148,0.2142,0.2133,0.2123,0.2223,0.2222,0.2222,0.2221,0,0.055,0.0608,0.0662,0.0753,0.0836,0.0931,0.1082,0.1153,0.1417,0.1585,0.1794,0.1903,0.2075,0.2172,0.2256,0.2278,0.2316,0.2306,0.2308,0.2186,0.2137,0.2131,0.2124,0.2215,0.2216,0.2216,0.2217,0,0.0453,0.046,0.055,0.0624,0.0719,0.0814,0.0906,0.1093,0.1234,0.1589,0.1646,0.1884,0.2068,0.2124,0.2194,0.2233,0.2179,0.2072,0.2085,0.2093,0.1992,0.1905,0.1931,0,0,0,0,0,0.0359,0.0375,0.0425,0.0511,0.0601,0.0679,0.0886,0.101,0.1272,0.1387,0.1535,0.1702,0.1856,0.1955,0.1968,0.2098,0.2155,0.2098,0.2027,0.2178,0.2186,0.2078,0,0,0,0,0,0,0.0305,0.0342,0.038,0.041,0.0451,0.0562,0.0697,0.0882,0.099,0.1257,0.1358,0.1558,0.1728,0.1822,0.1913,0.1947,0.1863,0.2245,0.224,0.2174,0.2181,0.2187,0.2079,0,0,0,0,0]},{"header":{"parameterUnit":"m.s-1","parameterCategory":2,"la1":30.2991,"la2":30.254,"lo1":-89.0895,"lo2":-89.0444,"dy":0.0017,"dx":0.0017,"nx":28,"ny":28,"refTime":"2024-04-11T03:00:00:Z","depth":"4","parameterNumber":3,"parameterNumberName":"V-component_of_CURRENTS"},"data":[0,0,0,0,0,0,0,0,0,0,0,0,0,0,0,0,0,0,0,0,0,0,0,0,0,0,0,0,0,0,0,0,0,0,0,0,0,0,0,0,0,0,0,0,0,0,0,0,0,0,0,0,0,0,0,0,0,0,0.0513,0.0513,0,0.0467,0.0466,0.0465,0.0446,0.0446,0.0447,0.0447,0.0374,0.0372,0.037,0,0,0,0,0,0,0,0,0,0,0,0,0,0.0506,0.0506,0.0513,0.0513,0.0512,0.0467,0.0466,0.0465,0.0446,0.0446,0.0447,0.0447,0.0375,0.0372,0.0369,0,0,0,0,0,0,0,0,0,0,0,0,0,0.0487,0.0507,0.0513,0.0499,0.0498,0.0467,0.0466,0.0465,0.0446,0.0446,0.0447,0.0447,0.0376,0.0372,0.0369,0.0337,0,0,0.0359,0.0357,0,0,0,0,0,0,0,0,0.0488,0.0487,0.0502,0.05,0.0499,0.0465,0.0437,0.0422,0.0446,0.0462,0.0447,0.0448,0.0404,0.0398,0.0384,0.0333,0.033,0.0358,0.0356,0.0355,0.0354,0,0,0,0,0,0,0,0.0489,0.0488,0.0492,0.0501,0.05,0.0469,0.0467,0.0433,0.0428,0.0461,0.046,0.046,0.0402,0.0388,0.0382,0.0329,0.0358,0.0355,0.0353,0.0352,0.0321,0.0323,0,0,0,0,0,0,0.0505,0.049,0.0493,0.049,0.0498,0.0469,0.0467,0.0473,0.0429,0.0423,0.0459,0.0459,0.0393,0.0386,0.038,0.0391,0.0355,0.0351,0.035,0.032,0.0322,0.0323,0,0,0,0,0,0,0.0505,0.0506,0.0495,0.0491,0.0488,0.047,0.0476,0.0472,0.0468,0.0428,0.0422,0.0461,0.0393,0.0384,0.0365,0.0386,0.035,0.0347,0.0319,0.0321,0.0322,0.038,0,0,0,0,0,0,0.0505,0.0506,0.0515,0.0492,0.0489,0.0489,0.0476,0.0471,0.0468,0.0467,0.0427,0.0421,0.0393,0.0371,0.0362,0.0381,0.0344,0.0317,0.0319,0.0322,0.0376,0.0383,0.0389,0,0,0,0,0,0.0505,0.0517,0.0516,0.0517,0.0503,0.0489,0.0484,0.047,0.0468,0.0468,0.0446,0.0423,0.038,0.0368,0.0358,0.0376,0.0316,0.0319,0.0322,0.0373,0.0382,0.0389,0,0,0,0,0,0,0.051,0.0516,0.0514,0.0526,0.0515,0.0488,0.0488,0.0477,0.0458,0.0461,0.0423,0.0415,0.0408,0.0386,0.0374,0.0378,0.035,0.0351,0.0393,0.0401,0.0407,0.0425,0.0341,0,0,0,0,0,0.0519,0.0535,0.0525,0.0533,0.0533,0.0512,0.0505,0.0497,0.0477,0.047,0.0443,0.0424,0.0409,0.04,0.0378,0.0369,0.0324,0.0381,0.0387,0.0393,0.0403,0.0345,0.0347,0.0332,0.0332,0.0332,0,0,0.0519,0.0527,0.0533,0.0536,0.0527,0.0532,0.0509,0.0506,0.0515,0.0464,0.0464,0.0437,0.0411,0.0408,0.0405,0.0393,0.0373,0.0397,0.0401,0.0408,0.0348,0.0349,0.035,0.0334,0.0334,0.0333,0,0,0.0531,0.054,0.0558,0.0559,0.056,0.0549,0.0554,0.0535,0.0534,0.0526,0.0502,0.0489,0.0459,0.0448,0.0439,0.0468,0.0406,0.0468,0.0514,0.0458,0.0459,0.0458,0.0394,0.0387,0.0475,0.0475,0.0475,0,0.0532,0.0561,0.0557,0.0576,0.0587,0.0564,0.0583,0.0574,0.0551,0.0556,0.0539,0.0507,0.0481,0.0485,0.0503,0.0482,0.0434,0.0483,0.0465,0.0464,0.0462,0.0396,0.0388,0.0478,0.0478,0.0477,0.0477,0,0.056,0.0585,0.0595,0.0621,0.0626,0.0638,0.0635,0.0638,0.0632,0.062,0.0618,0.0577,0.0561,0.0556,0.0538,0.0531,0.0494,0.0473,0.044,0.0467,0.0396,0.0386,0.0483,0.0481,0.0481,0.048,0,0,0.0571,0.0609,0.0619,0.0646,0.0658,0.0669,0.0689,0.0702,0.0724,0.0692,0.0705,0.0683,0.0654,0.0644,0.0613,0.0575,0.0521,0.053,0.0525,0.0459,0.0384,0.0331,0.0314,0.0488,0.0487,0.0487,0.0335,0,0.06,0.0652,0.0665,0.0715,0.074,0.0742,0.0761,0.0768,0.0771,0.0771,0.0733,0.0725,0.069,0.0682,0.0639,0.055,0.0501,0.0564,0.0376,0.0371,0.0313,0.0304,0.0484,0.0327,0.0325,0.0323,0.0322,0,0.0637,0.0671,0.0726,0.0775,0.0788,0.0816,0.0863,0.0877,0.0872,0.0867,0.0849,0.0805,0.0756,0.0717,0.057,0.0608,0.0509,0.0434,0.0425,0.0351,0.03,0.0298,0.0304,0.0305,0.0307,0.0308,0.0309,0,0.0664,0.0722,0.0774,0.0792,0.0832,0.087,0.0895,0.0912,0.0933,0.093,0.0924,0.0856,0.0807,0.0687,0.0531,0.0545,0.0347,0.0341,0.0197,0.0191,0.0259,0.0261,0.0233,0.0234,0.0234,0.0234,0.0235,0,0.0696,0.0742,0.0799,0.0831,0.0896,0.0914,0.0982,0.0995,0.1007,0.1016,0.0974,0.0942,0.0795,0.0664,0.0532,0.0322,0.0335,0.0199,0.0148,0.0286,0.0294,0.0251,0.0255,0.0229,0.023,0.0231,0.0232,0,0.0704,0.0745,0.0809,0.0878,0.091,0.0958,0.1034,0.107,0.1078,0.1084,0.1076,0.0984,0.0809,0.0643,0.0425,0.031,0.0129,0.0052,0.0199,0.016,0.0012,0.0022,-0.0116,-0.0119,-0.0122,-0.0124,-0.0126,0,0.0705,0.074,0.0842,0.0888,0.0928,0.1007,0.1054,0.11,0.1124,0.1096,0.1076,0.0937,0.0847,0.05,0.0332,0.0057,0.0025,-0.007,-0.0006,0.0012,-0.0024,-0.001,0.0002,-0.013,-0.0131,-0.0132,-0.0132,0,0.0695,0.074,0.079,0.0889,0.0965,0.1046,0.1113,0.112,0.1141,0.116,0.1054,0.0899,0.0692,0.0465,0.0242,0.0055,-0.0003,-0.0098,-0.0093,-0.0033,-0.0007,-0.0037,-0.0021,-0.0142,-0.014,-0.0139,-0.0139,0,0.0681,0.0712,0.0788,0.0873,0.0966,0.1034,0.1083,0.1092,0.1112,0.1072,0.103,0.0847,0.0754,0.0459,0.0256,0.0061,0.0027,-0.0018,-0.0017,-0.0009,0.0074,0.0126,-0.0017,0,0,0,0,0,0.0648,0.0688,0.0765,0.0859,0.0951,0.1018,0.1089,0.1123,0.1135,0.1058,0.1045,0.0857,0.0562,0.0446,0.0237,0.02,-0.0013,-0.0051,-0.0066,-0.0193,-0.0182,-0.0107,0,0,0,0,0,0,0.063,0.0693,0.0744,0.0829,0.089,0.0998,0.1044,0.1064,0.1016,0.1004,0.0849,0.0806,0.052,0.0679,0.0235,0.0179,0.0139,-0.0172,-0.0176,-0.0199,-0.019,-0.0181,-0.0099,0,0,0,0,0]}]]